Flag for Canada

Past Weather in New Chelsea-New Melbourne-Brownsdale-Sibley's Cove-Lead Cove, Newfoundland and Labrador, Canada — Yesterday and Last 2 Weeks

Now
55 °F

Low clouds.


Feels Like: 54 °F
Forecast: 67 / 53 °F
Wind: 7 mph from Northwest

Location: St. John's

Current Time: Jul 22, 2019 at 11:47:29 am

Latest Report: Jul 22, 2019 at 10:52 am


Visibility: 8 mi

Pressure: 29.54 "Hg

Humidity: 100%

Dew Point: 55 °F

Location of New Chelsea-New Melbourne-Brownsdale-Sibley's Cove-Lead CoveLocation

Past Weather in New Chelsea-New Melbourne-Brownsdale-Sibley's Cove-Lead Cove — Graph

°F

New Chelsea-New Melbourne-Brownsdale-Sibley's Cove-Lead Cove Temperature Yesterday

Maximum temperature yesterday: 55 °F (at 1:30 pm)
Minimum temperature yesterday: 46 °F (at 1:30 am)
Average temperature yesterday: 49 °F

High & Low Weather Summary for the Past Weeks

 TemperatureHumidityPressure
High75 °F (Jul 7, 4:30 pm)100% (Jul 8, 12:30 am)30.13 "Hg (Jul 8, 12:30 am)
Low45 °F (Jul 11, 12:40 am)36% (Jul 8, 2:30 pm)29.45 "Hg (Jul 7, 10:30 am)
Average55 °F86%29.79 "Hg
* Reported Jul 7 10:30 am — Jul 22 10:30 am, New Chelsea-New Melbourne-Brownsdale-Sibley's Cove-Lead Cove. Weather by CustomWeather, © 2019

Note: Actual official high and low records may vary slightly from our data, if they occured in-between our weather recording intervals... More about our weather records

Advertising

New Chelsea-New Melbourne-Brownsdale-Sibley's Cove-Lead Cove Weather History for the Previous 24 Hours

Scroll right to see more
 ConditionsComfort  
Time TempWeatherWind HumidityBarometerVisibility
10:30 am
Mon, Jul 22
54 °FFog.6 mph100%29.53 "Hg2 mi
10:21 am54 °FFog.5 mph100%29.52 "Hg2 mi
9:30 am52 °FLight rain. Fog.5 mph100%29.53 "Hg1 mi
9:10 am52 °FLight rain. Fog.6 mph100%29.54 "Hg1 mi
8:30 am52 °FDrizzle. Fog.No wind100%29.55 "Hg1 mi
7:30 am50 °FFog.3 mph100%29.59 "Hg0 mi
6:30 am50 °FFog.5 mph100%29.59 "Hg0 mi
5:30 am50 °FLight rain. Fog.9 mph100%29.60 "Hg0 mi
4:54 am50 °FLight rain. Fog.9 mph100%29.61 "Hg0 mi
3:59 am50 °FDrizzle. Fog.15 mph100%29.63 "Hg1 mi
3:42 am50 °FLight rain. Fog.14 mph100%29.63 "Hg1 mi
3:30 am50 °FDrizzle. Fog.16 mph100%29.64 "Hg1 mi
2:30 am50 °FDrizzle. Fog.17 mph100%29.67 "Hg1 mi
2:00 am50 °FDrizzle. Fog.17 mph100%29.69 "Hg1 mi
1:30 am50 °FLight rain. Fog.13 mph94%29.70 "Hg1 mi
12:30 am50 °FLight rain. Fog.22 mph94%29.71 "Hg2 mi
11:48 pm
Sun, Jul 21
48 °FLight rain. Fog.15 mph100%29.74 "Hg2 mi
11:17 pm48 °FLight rain. Fog.17 mph100%29.75 "Hg1 mi
10:30 pm48 °FFog.16 mph100%29.78 "Hg0 mi
10:18 pm48 °FFog.16 mph100%29.77 "Hg0 mi
9:30 pm48 °FSprinkles. Fog.22 mph100%29.77 "Hg6 mi
8:51 pm48 °FSprinkles. Mostly cloudy.15 mph100%29.78 "Hg12 mi
7:30 pm48 °FLight rain. Low clouds.14 mph100%29.78 "Hg12 mi
6:56 pm48 °FMostly cloudy.17 mph100%29.77 "Hg15 mi
6:30 pm48 °FLight rain. Mostly cloudy.15 mph100%29.77 "Hg15 mi
5:30 pm50 °FLight rain. Low clouds.13 mph94%29.78 "Hg15 mi
4:30 pm50 °FLow clouds.15 mph94%29.77 "Hg15 mi
4:12 pm52 °FLow clouds.16 mph94%29.77 "Hg15 mi
3:30 pm54 °FPartly sunny.12 mph82%29.79 "Hg15 mi
2:30 pm55 °FPartly sunny.13 mph82%29.79 "Hg15 mi
1:30 pm55 °FMore clouds than sun.13 mph82%29.80 "Hg15 mi
12:30 pm52 °FMore clouds than sun.10 mph88%29.80 "Hg15 mi
12:02 pm52 °FMostly cloudy.13 mph88%29.79 "Hg15 mi
11:30 am54 °FLow clouds.8 mph82%29.80 "Hg15 mi
Weather by CustomWeather, © 2019

See weather overview